Regional Weather Roundup
Issued by NWS

Home | Current Version | Previous Version | Graphics & Text | Print | Product List | Glossary On
Versions: 1 2 3 4 5 6 7 8 9 10 11 12 13 14 15 16 17 18 19 20 21 22 23 24 25 26 27 28 29 30 31 32 33 34 35 36 37 38 39 40 41 42 43 44 45 46 47 48 49 50
851
ASUS44 KLIX 270101
RWRLA
LOUISIANA WEATHER ROUNDUP
NATIONAL WEATHER SERVICE NEW ORLEANS LA
700 PM CST THU FEB 26 2015

NOTE: "FAIR" INDICATES FEW OR NO CLOUDS BELOW 12,000 FEET WITH NO
      SIGNIFICANT WEATHER AND/OR OBSTRUCTIONS TO VISIBILITY.
      SKY/WX - SKY CONDITION AND SIGNIFICANT WEATHER.
      TMP - AIR TEMPERATURE.    DP   - DEWPOINT TEMPERATURE.
      RH  - RELATIVE HUMIDITY.  PRES - PRESSURE.
      HX  - HEAT INDEX.         WCI  - WIND CHILL INDEX.

*  THESE STATIONS ARE NOT NWS OR FAA STATIONS AND ARE NOT UNDER
   NWS QUALITY CONTROL.

LAZ040-048-061>063-065-066-069-270200-
SOUTHEAST LOUISIANA

CITY           SKY/WX    TMP DP  RH WIND       PRES   REMARKS
N.O. AUDUBON     N/A     48  36  63 MISG        N/A
N.O. INTL ARPT CLOUDY    48  33  56 N13       30.16R
N.O. LAKEFRONT CLOUDY    50  34  54 N15       30.17R
SLIDELL        CLOUDY    43  35  73 CALM      30.16R
BATON ROUGE    CLEAR     45  33  63 N9        30.19R
BOOTHVILLE     CLOUDY    47  39  74 VRB7      30.15R
BELLE CHASSE   CLOUDY    47  32  56 N6        30.15R
BOGALUSA*        N/A     44  33  65 N6        30.18R
GALLIANO*      CLOUDY    47  37  68 MISG      30.16R
NEW ROADS*     NOT AVBL
GONZALES*      NOT AVBL
HAMMOND*       NOT AVBL
HOUMA*         MOCLDY    44  35  70 N5        30.16R
PORT FOURCHON* CLEAR     46  36  66 N16       30.18R

$$

LAZ041-044-053-054-270200-
SOUTHWEST LOUISIANA

CITY           SKY/WX    TMP DP  RH WIND       PRES   REMARKS
LAKE CHARLES   PTCLDY    47  36  65 NE8       30.21R
LAFAYETTE      CLEAR     45  34  65 N12       30.20R
PATTERSON      MOCLDY    46  34  61 N5        30.17R
SALT POINT       N/A     47  36  65 N5        30.16R
NEW IBERIA     PTCLDY    45  33  63 N10       30.20R
CHENAULT AIRPK CLEAR     46  36  66 N7        30.21R

$$

LAZ027-028-270200-
CENTRAL LOUISIANA

CITY           SKY/WX    TMP DP  RH WIND       PRES   REMARKS
FORT POLK      CLOUDY    41  34  76 N12G17    30.25R
ALEXANDRIA INT CLOUDY    42  34  73 N13       30.24R
ALEXANDRIA     CLOUDY    42  33  70 N7        30.26R

$$

LAZ001-002-270200-
NORTHWEST LOUISIANA

CITY           SKY/WX    TMP DP  RH WIND       PRES   REMARKS
SHREVEPORT     PTCLDY    35  30  82 NW7       30.33R WCI  29
BARKSDALE AFB  PTCLDY    34  29  82 NE1       30.31R
DTN SHREVEPORT CLEAR     35  28  75 CALM      30.32R

$$

LAZ014-016-270200-
NORTHEAST LOUISIANA

CITY           SKY/WX    TMP DP  RH WIND       PRES   REMARKS
MONROE         CLOUDY    37  32  82 N7        30.32R WCI  32
TALLULAH       CLOUDY    36  30  79 N15       30.30R WCI  27

$$




USA.gov is the U.S. government's official web portal to all federal, state and local government web resources and services.